User: anonymous
Location: PACMO
(41.3967°N, 90.3760°W)
Time: 03:23:58
(UTC-05:00)
Language:

BREEZE-M DEB (TANK) - Orbit

View from above orbital plane
View from above orbital plane
View from above satellite
View from above satellite

Ground track
Ground track

The orbit data is extracted from the following two-line orbital elements,

1 31863U 07032B   14273.58627374  .00000557  00000-0  40171-3 0  3001
2 31863 045.9445 127.9071 4991971 201.0851 127.7262 05.50770837144859
Epoch (UTC): 30 September 2014 14:04:14
Eccentricity: 0.4991971
inclination: 45.9445°
perigee height: 405 km
apogee height: 13927 km
right ascension of ascending node: 127.9071°
argument of perigee: 201.0851°
revolutions per day: 5.50770837
mean anomaly at epoch: 127.7262°
orbit number at epoch: 14485

The dashed part of the orbit path shows where the satellite is in the earth's shadow,  

DLR